GSAT0203 (PRN E26)

Last updated on Feb. 28, 2020, 4:49 a.m. UTC

1 40544U 15017A   20058.45460352 -.00000046  00000-0  00000+0 0  9995
2 40544  56.3510  44.4843 0005410 271.6111  88.3255  1.70475026 30629
UTC
Height (km)
Latitude
Longitude
Inclination
Orbital Period
UTC large
Height (km)
Speed (km/s)
/
Latitude / Longitude
Inclination (degrees)
Orbital Period (minutes)
Azimuth
Elevation
Range (km)
Doppler Factor
iOS Compass Heading
iOS Angle

Next 30 passes for location: Hong Kong

Rise time Rise Azimuth (degrees) Set time Set Azimuth (degrees) Duration Max altitude (degrees)

No matching passes for this satellites